Change the Weather History Date:

Monday, April 22, 2013

  Actual Average Record
Temperature  
Mean Temperature 58 °F -  
Max Temperature 73 °F - - ()
Min Temperature 44 °F - - ()
Degree Days  
Heating Degree Days 6    
Growing Degree Days 8 (Base 50)    
Moisture  
Dew Point 42 °F    
Average Humidity 53    
Maximum Humidity 71    
Minimum Humidity 33    
Precipitation  
Precipitation 0.00 in - - ()
Sea Level Pressure  
Sea Level Pressure 30.01 in    
Wind  
Wind Speed 6 mph ()    
Max Wind Speed 12 mph    
Max Gust Speed -    
Visibility 6.2 miles    
Events      
T = Trace of Precipitation, MM = Missing Value Source: Averaged Metar Reports

Daily Weather History Graph

Daily Weather History Graph

Search for Another Location

Airport or City:

Trip Planner

Search our weather history database for the weather conditions in past years. The results will help you decide how hot, cold, wet, or windy it might be!

Date:

Astronomy

Apr. 22, 2013 Rise Set
Actual Time 6:24 AM EEST 8:25 PM EEST
Civil Twilight 5:51 AM EEST 8:59 PM EEST
Nautical Twilight 5:10 AM EEST 9:40 PM EEST
Astronomical Twilight 4:24 AM EEST 10:26 PM EEST
Moon 4:40 PM EEST (4/22) 4:24 AM EEST (4/22)
Length of Visible Light 15h 07m
Length of Day
14h 01m
Waxing Gibbous, 85% of the Moon is Illuminated
Apr 22
Waxing Gibbous
Apr 25
Full
May 2
Last Quarter
May 10
New
May 18
First Quarter

Hourly Weather History & Observations

Time (EEST) Temp. Windchill Dew Point Humidity Pressure Visibility Wind Dir Wind Speed Gust Speed Precip Events Conditions
12:00 AM 53.6 °F - 41.0 °F 62% 30.01 in 6.2 mi ENE 6.9 mph - N/A   Scattered Clouds
1:00 AM 55.4 °F - 39.2 °F 54% 30.01 in 6.2 mi ENE 9.2 mph - N/A   Scattered Clouds
2:00 AM 51.8 °F - 39.2 °F 62% 30.04 in 6.2 mi ENE 6.9 mph - N/A   Scattered Clouds
3:00 AM 48.2 °F - 39.2 °F 71% 30.04 in 6.2 mi ENE 4.6 mph - N/A   Scattered Clouds
4:00 AM 46.4 °F 44.3 °F 37.4 °F 71% 30.04 in 6.2 mi ENE 4.6 mph - N/A   Scattered Clouds
5:00 AM 46.4 °F 44.3 °F 37.4 °F 71% 30.04 in - ENE 4.6 mph - N/A   Clear
5:30 AM 46.4 °F 42.9 °F 37.4 °F 71% 30.04 in - ENE 6.9 mph - N/A   Clear
6:00 AM 46.4 °F 42.9 °F 35.6 °F 66% 30.04 in - ENE 6.9 mph - N/A   Clear
6:30 AM 44.6 °F 42.2 °F 35.6 °F 71% 30.04 in - East 4.6 mph - N/A   Clear
7:00 AM 46.4 °F 44.3 °F 37.4 °F 71% 30.04 in - ENE 4.6 mph - N/A   Clear
7:30 AM 48.2 °F - 37.4 °F 66% 30.04 in - ENE 6.9 mph - N/A   Clear
8:00 AM 51.8 °F - 37.4 °F 58% 30.04 in - ENE 4.6 mph - N/A   Clear
8:30 AM 55.4 °F - 39.2 °F 54% 30.04 in - East 6.9 mph - N/A   Clear
9:00 AM 55.4 °F - 39.2 °F 54% 30.04 in - East 9.2 mph - N/A   Clear
9:30 AM 59.0 °F - 39.2 °F 48% 30.04 in - East 9.2 mph - N/A   Clear
10:00 AM 60.8 °F - 37.4 °F 42% 30.04 in - ESE 9.2 mph - N/A   Clear
10:30 AM 60.8 °F - 37.4 °F 42% 30.04 in - East 11.5 mph - N/A   Clear
11:00 AM 62.6 °F - 39.2 °F 42% 30.04 in - ESE 9.2 mph - N/A   Clear
11:30 AM 62.6 °F - 39.2 °F 42% 30.04 in - ESE 6.9 mph - N/A   Clear
12:00 PM 64.4 °F - 41.0 °F 42% 30.04 in - ESE 9.2 mph - N/A   Clear
12:30 PM 66.2 °F - 41.0 °F 40% 30.04 in 6.2 mi SE 6.9 mph - N/A   Scattered Clouds
1:00 PM 66.2 °F - 41.0 °F 40% 30.01 in - East 4.6 mph - N/A   Clear
1:30 PM 68.0 °F - 41.0 °F 37% 30.01 in - SE 6.9 mph - N/A   Clear
2:00 PM 68.0 °F - 42.8 °F 40% 30.01 in - Variable 4.6 mph - N/A   Clear
2:30 PM 69.8 °F - 44.6 °F 40% 30.01 in - Variable 4.6 mph - N/A   Clear
3:00 PM 71.6 °F - 42.8 °F 35% 29.98 in - Variable 4.6 mph - N/A   Clear
3:30 PM 73.4 °F - 42.8 °F 33% 29.98 in - Variable 2.3 mph - N/A   Clear
4:00 PM 71.6 °F - 42.8 °F 35% 29.98 in 6.2 mi Variable 4.6 mph - N/A   Partly Cloudy
4:30 PM 71.6 °F - 46.4 °F 41% 29.98 in 6.2 mi SW 4.6 mph - N/A   Partly Cloudy
5:30 PM 71.6 °F - 46.4 °F 41% 29.98 in 6.2 mi SSW 4.6 mph - N/A   Partly Cloudy
6:00 PM 71.6 °F - 44.6 °F 38% 29.95 in 6.2 mi SW 6.9 mph - N/A   Partly Cloudy
6:30 PM 71.6 °F - 46.4 °F 41% 29.95 in 6.2 mi SW 4.6 mph - N/A   Partly Cloudy
7:00 PM 69.8 °F - 50.0 °F 49% 29.95 in 6.2 mi SW 6.9 mph - N/A   Partly Cloudy
7:30 PM 66.2 °F - 48.2 °F 52% 29.98 in 6.2 mi SW 11.5 mph - N/A   Partly Cloudy
8:00 PM 64.4 °F - 48.2 °F 56% 29.98 in 6.2 mi SW 6.9 mph - N/A   Partly Cloudy
8:30 PM 62.6 °F - 48.2 °F 59% 29.98 in 6.2 mi Variable 2.3 mph - N/A   Partly Cloudy
9:00 PM 60.8 °F - 46.4 °F 59% 29.98 in 6.2 mi Variable 2.3 mph - N/A   Partly Cloudy
9:30 PM 57.2 °F - 46.4 °F 67% 30.01 in - NE 4.6 mph - N/A   Clear
10:00 PM 57.2 °F - 46.4 °F 67% 30.01 in - NE 4.6 mph - N/A   Clear
10:30 PM 57.2 °F - 46.4 °F 67% 30.01 in - ENE 4.6 mph - N/A   Clear
11:00 PM 55.4 °F - 44.6 °F 67% 30.01 in 6.2 mi NE 4.6 mph - N/A   Scattered Clouds